Year,Month,Day,Hour,Minute,Value (Times are PST for temperature in C)
2012,09,24,00,00,8.20
2012,09,24,00,01,8.20
2012,09,24,00,02,8.20
2012,09,24,00,03,8.20
2012,09,24,00,04,8.20
2012,09,24,00,05,8.20
2012,09,24,00,06,8.20
2012,09,24,00,07,8.20
2012,09,24,00,08,8.20
2012,09,24,00,09,8.20
2012,09,24,00,10,8.30
2012,09,24,00,11,8.30
2012,09,24,00,12,8.30
2012,09,24,00,13,8.30
2012,09,24,00,14,8.30
2012,09,24,00,15,8.30
2012,09,24,00,16,8.40
2012,09,24,00,17,8.40
2012,09,24,00,18,8.40
2012,09,24,00,19,8.40
2012,09,24,00,20,8.40
2012,09,24,00,21,8.40
2012,09,24,00,22,8.30
2012,09,24,00,23,8.30
2012,09,24,00,24,8.30
2012,09,24,00,25,8.30
2012,09,24,00,26,8.20
2012,09,24,00,27,8.20
2012,09,24,00,28,8.20
2012,09,24,00,29,8.20
2012,09,24,00,30,8.20
2012,09,24,00,31,8.20
2012,09,24,00,32,8.10
2012,09,24,00,33,8.10
2012,09,24,00,34,8.10
2012,09,24,00,35,8.00
2012,09,24,00,36,8.00
2012,09,24,00,37,8.00
2012,09,24,00,38,8.00
2012,09,24,00,39,7.90
2012,09,24,00,40,7.90
2012,09,24,00,41,7.90
2012,09,24,00,42,7.90
2012,09,24,00,43,7.90
2012,09,24,00,44,7.90
2012,09,24,00,45,7.90
2012,09,24,00,46,7.90
2012,09,24,00,47,7.90
2012,09,24,00,48,7.90
2012,09,24,00,49,7.80
2012,09,24,00,50,7.80
2012,09,24,00,51,7.80
2012,09,24,00,52,7.80
2012,09,24,00,53,7.80
2012,09,24,00,54,7.80
2012,09,24,00,55,7.80
2012,09,24,00,56,7.80
2012,09,24,00,57,7.80
2012,09,24,00,58,7.80
2012,09,24,00,59,7.80
2012,09,24,01,00,7.80
2012,09,24,01,01,7.80
2012,09,24,01,02,7.80
2012,09,24,01,03,7.80
2012,09,24,01,04,7.80
2012,09,24,01,05,7.80
2012,09,24,01,06,7.80
2012,09,24,01,07,7.80
2012,09,24,01,08,7.80
2012,09,24,01,09,7.80
2012,09,24,01,10,7.80
2012,09,24,01,11,7.70
2012,09,24,01,12,7.70
2012,09,24,01,13,7.80
2012,09,24,01,14,7.80
2012,09,24,01,15,7.80
2012,09,24,01,16,7.80
2012,09,24,01,17,7.80
2012,09,24,01,18,7.80
2012,09,24,01,19,7.80
2012,09,24,01,20,7.80
2012,09,24,01,21,7.80
2012,09,24,01,22,7.80
2012,09,24,01,23,7.80
2012,09,24,01,24,7.80
2012,09,24,01,25,7.80
2012,09,24,01,26,7.80
2012,09,24,01,27,7.80
2012,09,24,01,28,7.80
2012,09,24,01,29,7.80
2012,09,24,01,30,7.80
2012,09,24,01,31,7.80
2012,09,24,01,32,7.80
2012,09,24,01,33,7.80
2012,09,24,01,34,7.80
2012,09,24,01,35,7.90
2012,09,24,01,36,7.80
2012,09,24,01,37,7.80
2012,09,24,01,38,7.80
2012,09,24,01,39,7.80
2012,09,24,01,40,7.80
2012,09,24,01,41,7.70
2012,09,24,01,42,7.70
2012,09,24,01,43,7.70
2012,09,24,01,44,7.70
2012,09,24,01,45,7.60
2012,09,24,01,46,7.60
2012,09,24,01,47,7.60
2012,09,24,01,48,7.70
2012,09,24,01,49,7.70
2012,09,24,01,50,7.60
2012,09,24,01,51,7.60
2012,09,24,01,52,7.60
2012,09,24,01,53,7.70
2012,09,24,01,54,7.70
2012,09,24,01,55,7.70
2012,09,24,01,56,7.70
2012,09,24,01,57,7.80
2012,09,24,01,58,7.80
2012,09,24,01,59,7.80
2012,09,24,02,00,7.80
2012,09,24,02,01,7.80
2012,09,24,02,02,7.80
2012,09,24,02,03,7.70
2012,09,24,02,04,7.70
2012,09,24,02,05,7.70
2012,09,24,02,06,7.70
2012,09,24,02,07,7.60
2012,09,24,02,08,7.60
2012,09,24,02,09,7.50
2012,09,24,02,10,7.50
2012,09,24,02,11,7.40
2012,09,24,02,12,7.40
2012,09,24,02,13,7.40
2012,09,24,02,14,7.50
2012,09,24,02,15,7.50
2012,09,24,02,16,7.50
2012,09,24,02,17,7.50
2012,09,24,02,18,7.50
2012,09,24,02,19,7.50
2012,09,24,02,20,7.50
2012,09,24,02,21,7.50
2012,09,24,02,22,7.50
2012,09,24,02,23,7.50
2012,09,24,02,24,7.50
2012,09,24,02,25,7.60
2012,09,24,02,26,7.60
2012,09,24,02,27,7.60
2012,09,24,02,28,7.60
2012,09,24,02,29,7.70
2012,09,24,02,30,7.70
2012,09,24,02,31,7.70
2012,09,24,02,32,7.70
2012,09,24,02,33,7.70
2012,09,24,02,34,7.70
2012,09,24,02,35,7.70
2012,09,24,02,36,7.70
2012,09,24,02,37,7.70
2012,09,24,02,38,7.70
2012,09,24,02,39,7.70
2012,09,24,02,40,7.60
2012,09,24,02,41,7.60
2012,09,24,02,42,7.60
2012,09,24,02,43,7.50
2012,09,24,02,44,7.50
2012,09,24,02,45,7.40
2012,09,24,02,46,7.40
2012,09,24,02,47,7.40
2012,09,24,02,48,7.40
2012,09,24,02,49,7.40
2012,09,24,02,50,7.40
2012,09,24,02,51,7.40
2012,09,24,02,52,7.40
2012,09,24,02,53,7.40
2012,09,24,02,54,7.40
2012,09,24,02,55,7.30
2012,09,24,02,56,7.30
2012,09,24,02,57,7.30
2012,09,24,02,58,7.20
2012,09,24,02,59,7.20
2012,09,24,03,00,7.10
2012,09,24,03,01,7.10
2012,09,24,03,02,7.10
2012,09,24,03,03,7.10
2012,09,24,03,04,7.10
2012,09,24,03,05,7.10
2012,09,24,03,06,7.00
2012,09,24,03,07,7.00
2012,09,24,03,08,7.00
2012,09,24,03,09,7.00
2012,09,24,03,10,7.10
2012,09,24,03,11,7.20
2012,09,24,03,12,7.20
2012,09,24,03,13,7.20
2012,09,24,03,14,7.20
2012,09,24,03,15,7.30
2012,09,24,03,16,7.30
2012,09,24,03,17,7.30
2012,09,24,03,18,7.30
2012,09,24,03,19,7.30
2012,09,24,03,20,7.30
2012,09,24,03,21,7.40
2012,09,24,03,22,7.40
2012,09,24,03,23,7.40
2012,09,24,03,24,7.50
2012,09,24,03,25,7.50
2012,09,24,03,26,7.50
2012,09,24,03,27,7.50
2012,09,24,03,28,7.50
2012,09,24,03,29,7.50
2012,09,24,03,30,7.60
2012,09,24,03,31,7.50
2012,09,24,03,32,7.50
2012,09,24,03,33,7.40
2012,09,24,03,34,7.40
2012,09,24,03,35,7.30
2012,09,24,03,36,7.30
2012,09,24,03,37,7.20
2012,09,24,03,38,7.20
2012,09,24,03,39,7.10
2012,09,24,03,40,7.10
2012,09,24,03,41,7.10
2012,09,24,03,42,7.00
2012,09,24,03,43,7.00
2012,09,24,03,44,7.00
2012,09,24,03,45,7.00
2012,09,24,03,46,7.00
2012,09,24,03,47,7.00
2012,09,24,03,48,7.00
2012,09,24,03,49,7.00
2012,09,24,03,50,6.90
2012,09,24,03,51,6.90
2012,09,24,03,52,6.90
2012,09,24,03,53,6.90
2012,09,24,03,54,6.90
2012,09,24,03,55,6.90
2012,09,24,03,56,6.90
2012,09,24,03,57,6.90
2012,09,24,03,58,6.90
2012,09,24,03,59,6.90
2012,09,24,04,00,6.90
2012,09,24,04,01,6.90
2012,09,24,04,02,6.90
2012,09,24,04,03,6.90
2012,09,24,04,04,7.00
2012,09,24,04,05,7.00
2012,09,24,04,06,7.10
2012,09,24,04,07,7.10
2012,09,24,04,08,7.10
2012,09,24,04,09,7.20
2012,09,24,04,10,7.20
2012,09,24,04,11,7.20
2012,09,24,04,12,7.20
2012,09,24,04,13,7.30
2012,09,24,04,14,7.30
2012,09,24,04,15,7.30
2012,09,24,04,16,7.30
2012,09,24,04,17,7.30
2012,09,24,04,18,7.30
2012,09,24,04,19,7.30
2012,09,24,04,20,7.30
2012,09,24,04,21,7.30
2012,09,24,04,22,7.30
2012,09,24,04,23,7.30
2012,09,24,04,24,7.30
2012,09,24,04,25,7.30
2012,09,24,04,26,7.30
2012,09,24,04,27,7.30
2012,09,24,04,28,7.40
2012,09,24,04,29,7.40
2012,09,24,04,30,7.40
2012,09,24,04,31,7.40
2012,09,24,04,32,7.40
2012,09,24,04,33,7.30
2012,09,24,04,34,7.30
2012,09,24,04,35,7.30
2012,09,24,04,36,7.20
2012,09,24,04,37,7.20
2012,09,24,04,38,7.10
2012,09,24,04,39,7.00
2012,09,24,04,40,7.00
2012,09,24,04,41,6.90
2012,09,24,04,42,7.00
2012,09,24,04,43,7.00
2012,09,24,04,44,7.00
2012,09,24,04,45,7.10
2012,09,24,04,46,7.10
2012,09,24,04,47,7.10
2012,09,24,04,48,7.00
2012,09,24,04,49,7.00
2012,09,24,04,50,6.90
2012,09,24,04,51,6.90
2012,09,24,04,52,6.90
2012,09,24,04,53,6.80
2012,09,24,04,54,6.80
2012,09,24,04,55,6.80
2012,09,24,04,56,6.80
2012,09,24,04,57,6.80
2012,09,24,04,58,6.80
2012,09,24,04,59,6.80
2012,09,24,05,00,6.80
2012,09,24,05,01,6.80
2012,09,24,05,02,6.80
2012,09,24,05,03,6.80
2012,09,24,05,04,6.80
2012,09,24,05,05,6.80
2012,09,24,05,06,6.80
2012,09,24,05,07,6.80
2012,09,24,05,08,6.80
2012,09,24,05,09,6.80
2012,09,24,05,10,6.80
2012,09,24,05,11,6.90
2012,09,24,05,12,6.90
2012,09,24,05,13,7.00
2012,09,24,05,14,7.10
2012,09,24,05,15,7.10
2012,09,24,05,16,7.10
2012,09,24,05,17,7.20
2012,09,24,05,18,7.20
2012,09,24,05,19,7.20
2012,09,24,05,20,7.20
2012,09,24,05,21,7.20
2012,09,24,05,22,7.20
2012,09,24,05,23,7.20
2012,09,24,05,24,7.20
2012,09,24,05,25,7.20
2012,09,24,05,26,7.20
2012,09,24,05,27,7.20
2012,09,24,05,28,7.30
2012,09,24,05,29,7.30
2012,09,24,05,30,7.30
2012,09,24,05,31,7.30
2012,09,24,05,32,7.30
2012,09,24,05,33,7.30
2012,09,24,05,34,7.30
2012,09,24,05,35,7.20
2012,09,24,05,36,7.20
2012,09,24,05,37,7.20
2012,09,24,05,38,7.20
2012,09,24,05,39,7.20
2012,09,24,05,40,7.20
2012,09,24,05,41,7.10
2012,09,24,05,42,7.10
2012,09,24,05,43,7.10
2012,09,24,05,44,7.20
2012,09,24,05,45,7.20
2012,09,24,05,46,7.20
2012,09,24,05,47,7.20
2012,09,24,05,48,7.20
2012,09,24,05,49,7.20
2012,09,24,05,50,7.20
2012,09,24,05,51,7.20
2012,09,24,05,52,7.10
2012,09,24,05,53,7.10
2012,09,24,05,54,7.10
2012,09,24,05,55,7.10
2012,09,24,05,56,7.10
2012,09,24,05,57,7.10
2012,09,24,05,58,7.10
2012,09,24,05,59,7.10
2012,09,24,06,00,7.20
2012,09,24,06,01,7.20
2012,09,24,06,02,7.20
2012,09,24,06,03,7.20
2012,09,24,06,04,7.20
2012,09,24,06,05,7.30
2012,09,24,06,06,7.30
2012,09,24,06,07,7.30
2012,09,24,06,08,7.40
2012,09,24,06,09,7.40
2012,09,24,06,10,7.40
2012,09,24,06,11,7.40
2012,09,24,06,12,7.40
2012,09,24,06,13,7.40
2012,09,24,06,14,7.40
2012,09,24,06,15,7.50
2012,09,24,06,16,7.50
2012,09,24,06,17,7.60
2012,09,24,06,18,7.60
2012,09,24,06,19,7.60
2012,09,24,06,20,7.50
2012,09,24,06,21,7.40
2012,09,24,06,22,7.30
2012,09,24,06,23,7.20
2012,09,24,06,24,7.10
2012,09,24,06,25,7.00
2012,09,24,06,26,6.90
2012,09,24,06,27,6.80
2012,09,24,06,28,6.70
2012,09,24,06,29,6.60
2012,09,24,06,30,6.50
2012,09,24,06,31,6.40
2012,09,24,06,32,6.40
2012,09,24,06,33,6.30
2012,09,24,06,34,6.40
2012,09,24,06,35,6.40
2012,09,24,06,36,6.40
2012,09,24,06,37,6.50
2012,09,24,06,38,6.60
2012,09,24,06,39,6.60
2012,09,24,06,40,6.70
2012,09,24,06,41,6.70
2012,09,24,06,42,6.70
2012,09,24,06,43,6.70
2012,09,24,06,44,6.70
2012,09,24,06,45,6.80
2012,09,24,06,46,6.90
2012,09,24,06,47,6.90
2012,09,24,06,48,7.00
2012,09,24,06,49,7.00
2012,09,24,06,50,7.10
2012,09,24,06,51,7.10
2012,09,24,06,52,7.10
2012,09,24,06,53,7.10
2012,09,24,06,54,7.10
2012,09,24,06,55,7.10
2012,09,24,06,56,7.20
2012,09,24,06,57,7.20
2012,09,24,06,58,7.20
2012,09,24,06,59,7.10
2012,09,24,07,00,7.00
2012,09,24,07,01,7.00
2012,09,24,07,02,6.90
2012,09,24,07,03,6.90
2012,09,24,07,04,6.90
2012,09,24,07,05,6.90
2012,09,24,07,06,6.90
2012,09,24,07,07,6.90
2012,09,24,07,08,6.90
2012,09,24,07,09,6.90
2012,09,24,07,10,6.90
2012,09,24,07,11,6.90
2012,09,24,07,12,6.80
2012,09,24,07,13,6.80
2012,09,24,07,14,6.80
2012,09,24,07,15,6.80
2012,09,24,07,16,6.80
2012,09,24,07,17,6.80
2012,09,24,07,18,6.80
2012,09,24,07,19,6.90
2012,09,24,07,20,7.00
2012,09,24,07,21,7.00
2012,09,24,07,22,7.00
2012,09,24,07,23,7.00
2012,09,24,07,24,7.00
2012,09,24,07,25,7.00
2012,09,24,07,26,6.90
2012,09,24,07,27,6.90
2012,09,24,07,28,6.90
2012,09,24,07,29,6.90
2012,09,24,07,30,6.90
2012,09,24,07,31,6.90
2012,09,24,07,32,6.90
2012,09,24,07,33,6.90
2012,09,24,07,34,6.90
2012,09,24,07,35,7.00
2012,09,24,07,36,7.00
2012,09,24,07,37,7.00
2012,09,24,07,38,7.10
2012,09,24,07,39,7.10
2012,09,24,07,40,7.10
2012,09,24,07,41,7.10
2012,09,24,07,42,7.10
2012,09,24,07,43,7.10
2012,09,24,07,44,7.10
2012,09,24,07,45,7.00
2012,09,24,07,46,7.00
2012,09,24,07,47,7.00
2012,09,24,07,48,7.00
2012,09,24,07,49,7.00
2012,09,24,07,50,7.10
2012,09,24,07,51,7.10
2012,09,24,07,52,7.10
2012,09,24,07,53,7.10
2012,09,24,07,54,7.20
2012,09,24,07,55,7.20
2012,09,24,07,56,7.20
2012,09,24,07,57,7.30
2012,09,24,07,58,7.40
2012,09,24,07,59,7.40
2012,09,24,08,00,7.50
2012,09,24,08,01,7.50
2012,09,24,08,02,7.50
2012,09,24,08,03,7.60
2012,09,24,08,04,7.60
2012,09,24,08,05,7.60
2012,09,24,08,06,7.60
2012,09,24,08,07,7.60
2012,09,24,08,08,7.70
2012,09,24,08,09,7.70
2012,09,24,08,10,7.80
2012,09,24,08,11,7.80
2012,09,24,08,12,7.80
2012,09,24,08,13,7.80
2012,09,24,08,14,7.90
2012,09,24,08,15,7.90
2012,09,24,08,16,7.90
2012,09,24,08,17,8.00
2012,09,24,08,18,8.00
2012,09,24,08,19,8.00
2012,09,24,08,20,8.10
2012,09,24,08,21,8.10
2012,09,24,08,22,8.20
2012,09,24,08,23,8.30
2012,09,24,08,24,8.40
2012,09,24,08,25,8.40
2012,09,24,08,26,8.50
2012,09,24,08,27,8.60
2012,09,24,08,28,8.60
2012,09,24,08,29,8.60
2012,09,24,08,30,8.70
2012,09,24,08,31,8.70
2012,09,24,08,32,8.80
2012,09,24,08,33,8.90
2012,09,24,08,34,9.00
2012,09,24,08,35,9.00
2012,09,24,08,36,9.10
2012,09,24,08,37,9.10
2012,09,24,08,38,9.20
2012,09,24,08,39,9.20
2012,09,24,08,40,9.30
2012,09,24,08,41,9.30
2012,09,24,08,42,9.40
2012,09,24,08,43,9.50
2012,09,24,08,44,9.50
2012,09,24,08,45,9.60
2012,09,24,08,46,9.70
2012,09,24,08,47,9.80
2012,09,24,08,48,9.90
2012,09,24,08,49,10.00
2012,09,24,08,50,10.10
2012,09,24,08,51,10.20
2012,09,24,08,52,10.20
2012,09,24,08,53,10.30
2012,09,24,08,54,10.40
2012,09,24,08,55,10.50
2012,09,24,08,56,10.60
2012,09,24,08,57,10.70
2012,09,24,08,58,10.70
2012,09,24,08,59,10.80
2012,09,24,09,00,10.90
2012,09,24,09,01,11.00
2012,09,24,09,02,11.10
2012,09,24,09,03,11.10
2012,09,24,09,04,11.20
2012,09,24,09,05,11.30
2012,09,24,09,06,11.40
2012,09,24,09,07,11.50
2012,09,24,09,08,11.50
2012,09,24,09,09,11.60
2012,09,24,09,10,11.70
2012,09,24,09,11,11.80
2012,09,24,09,12,11.80
2012,09,24,09,13,11.80
2012,09,24,09,14,11.90
2012,09,24,09,15,11.90
2012,09,24,09,16,11.90
2012,09,24,09,17,11.90
2012,09,24,09,18,11.90
2012,09,24,09,19,11.90
2012,09,24,09,20,11.90
2012,09,24,09,21,11.90
2012,09,24,09,22,11.90
2012,09,24,09,23,11.90
2012,09,24,09,24,11.80
2012,09,24,09,25,11.80
2012,09,24,09,26,11.80
2012,09,24,09,27,11.70
2012,09,24,09,28,11.70
2012,09,24,09,29,11.60
2012,09,24,09,30,11.50
2012,09,24,09,31,11.40
2012,09,24,09,32,11.30
2012,09,24,09,33,11.30
2012,09,24,09,34,11.20
2012,09,24,09,35,11.20
2012,09,24,09,36,11.20
2012,09,24,09,37,11.20
2012,09,24,09,38,11.20
2012,09,24,09,39,11.20
2012,09,24,09,40,11.20
2012,09,24,09,41,11.30
2012,09,24,09,42,11.30
2012,09,24,09,43,11.30
2012,09,24,09,44,11.40
2012,09,24,09,45,11.50
2012,09,24,09,46,11.50
2012,09,24,09,47,11.50
2012,09,24,09,48,11.50
2012,09,24,09,49,11.60
2012,09,24,09,50,11.60
2012,09,24,09,51,11.60
2012,09,24,09,52,11.60
2012,09,24,09,53,11.60
2012,09,24,09,54,11.60
2012,09,24,09,55,11.70
2012,09,24,09,56,11.60
2012,09,24,09,57,11.60
2012,09,24,09,58,11.60
2012,09,24,09,59,11.60
2012,09,24,10,00,11.60
2012,09,24,10,01,11.60
2012,09,24,10,02,11.60
2012,09,24,10,03,11.70
2012,09,24,10,04,11.80
2012,09,24,10,05,11.90
2012,09,24,10,06,11.90
2012,09,24,10,07,11.90
2012,09,24,10,08,11.80
2012,09,24,10,09,11.80
2012,09,24,10,10,11.80
2012,09,24,10,11,11.70
2012,09,24,10,12,11.70
2012,09,24,10,13,11.70
2012,09,24,10,14,11.70
2012,09,24,10,15,11.70
2012,09,24,10,16,11.80
2012,09,24,10,17,11.80
2012,09,24,10,18,11.80
2012,09,24,10,19,11.60
2012,09,24,10,20,11.50
2012,09,24,10,21,11.40
2012,09,24,10,22,11.30
2012,09,24,10,23,11.20
2012,09,24,10,24,11.20
2012,09,24,10,25,11.20
2012,09,24,10,26,11.20
2012,09,24,10,27,11.30
2012,09,24,10,28,11.40
2012,09,24,10,29,11.50
2012,09,24,10,30,11.60
2012,09,24,10,31,11.80
2012,09,24,10,32,11.80
2012,09,24,10,33,11.90
2012,09,24,10,34,11.90
2012,09,24,10,35,12.00
2012,09,24,10,36,12.20
2012,09,24,10,37,12.30
2012,09,24,10,38,12.50
2012,09,24,10,39,12.50
2012,09,24,10,40,12.40
2012,09,24,10,41,12.30
2012,09,24,10,42,12.20
2012,09,24,10,43,12.10
2012,09,24,10,44,12.10
2012,09,24,10,45,12.10
2012,09,24,10,46,12.10
2012,09,24,10,47,12.20
2012,09,24,10,48,12.20
2012,09,24,10,49,12.10
2012,09,24,10,50,12.10
2012,09,24,10,51,12.20
2012,09,24,10,52,12.30
2012,09,24,10,53,12.20
2012,09,24,10,54,12.00
2012,09,24,10,55,11.90
2012,09,24,10,56,11.90
2012,09,24,10,57,12.00
2012,09,24,10,58,12.00
2012,09,24,10,59,12.10
2012,09,24,11,00,12.20
2012,09,24,11,01,12.20
2012,09,24,11,02,12.20
2012,09,24,11,03,12.20
2012,09,24,11,04,12.20
2012,09,24,11,05,12.20
2012,09,24,11,06,12.30
2012,09,24,11,07,12.20
2012,09,24,11,08,12.20
2012,09,24,11,09,12.20
2012,09,24,11,10,12.20
2012,09,24,11,11,12.10
2012,09,24,11,12,12.10
2012,09,24,11,13,12.00
2012,09,24,11,14,11.80
2012,09,24,11,15,11.60
2012,09,24,11,16,11.50
2012,09,24,11,17,11.40
2012,09,24,11,18,11.20
2012,09,24,11,19,11.10
2012,09,24,11,20,11.10
2012,09,24,11,21,11.10
2012,09,24,11,22,11.10
2012,09,24,11,23,11.10
2012,09,24,11,24,11.10
2012,09,24,11,25,11.20
2012,09,24,11,26,11.30
2012,09,24,11,27,11.30
2012,09,24,11,28,11.40
2012,09,24,11,29,11.40
2012,09,24,11,30,11.40
2012,09,24,11,31,11.40
2012,09,24,11,32,11.30
2012,09,24,11,33,11.20
2012,09,24,11,34,11.20
2012,09,24,11,35,11.10
2012,09,24,11,36,11.10
2012,09,24,11,37,11.10
2012,09,24,11,38,11.20
2012,09,24,11,39,11.20
2012,09,24,11,40,11.20
2012,09,24,11,41,11.30
2012,09,24,11,42,11.30
2012,09,24,11,43,11.30
2012,09,24,11,44,11.30
2012,09,24,11,45,11.40
2012,09,24,11,46,11.40
2012,09,24,11,47,11.50
2012,09,24,11,48,11.60
2012,09,24,11,49,11.70
2012,09,24,11,50,11.80
2012,09,24,11,51,11.80
2012,09,24,11,52,11.80
2012,09,24,11,53,11.70
2012,09,24,11,54,11.70
2012,09,24,11,55,11.70
2012,09,24,11,56,11.70
2012,09,24,11,57,11.70
2012,09,24,11,58,11.60
2012,09,24,11,59,11.60
2012,09,24,12,00,11.60
2012,09,24,12,01,11.50
2012,09,24,12,02,11.50
2012,09,24,12,03,11.50
2012,09,24,12,04,11.50
2012,09,24,12,05,11.50
2012,09,24,12,06,11.50
2012,09,24,12,07,11.50
2012,09,24,12,08,11.60
2012,09,24,12,09,11.60
2012,09,24,12,10,11.60
2012,09,24,12,11,11.70
2012,09,24,12,12,11.80
2012,09,24,12,13,11.80
2012,09,24,12,14,11.90
2012,09,24,12,15,11.90
2012,09,24,12,16,11.90
2012,09,24,12,17,11.90
2012,09,24,12,18,11.90
2012,09,24,12,19,11.80
2012,09,24,12,20,11.90
2012,09,24,12,21,11.80
2012,09,24,12,22,11.80
2012,09,24,12,23,11.80
2012,09,24,12,24,11.80
2012,09,24,12,25,11.80
2012,09,24,12,26,11.80
2012,09,24,12,27,11.90
2012,09,24,12,28,12.00
2012,09,24,12,29,12.10
2012,09,24,12,30,12.00
2012,09,24,12,31,12.00
2012,09,24,12,32,12.00
2012,09,24,12,33,12.00
2012,09,24,12,34,12.00
2012,09,24,12,35,12.00
2012,09,24,12,36,12.00
2012,09,24,12,37,12.00
2012,09,24,12,38,12.10
2012,09,24,12,39,12.10
2012,09,24,12,40,12.20
2012,09,24,12,41,12.30
2012,09,24,12,42,12.30
2012,09,24,12,43,12.30
2012,09,24,12,44,12.40
2012,09,24,12,45,12.40
2012,09,24,12,46,12.50
2012,09,24,12,47,12.50
2012,09,24,12,48,12.50
2012,09,24,12,49,12.50
2012,09,24,12,50,12.60
2012,09,24,12,51,12.70
2012,09,24,12,52,12.80
2012,09,24,12,53,12.80
2012,09,24,12,54,12.80
2012,09,24,12,55,13.00
2012,09,24,12,56,13.10
2012,09,24,12,57,13.20
2012,09,24,12,58,13.30
2012,09,24,12,59,13.40
2012,09,24,13,00,13.50
2012,09,24,13,01,13.60
2012,09,24,13,02,13.70
2012,09,24,13,03,13.80
2012,09,24,13,04,13.90
2012,09,24,13,05,14.00
2012,09,24,13,06,14.10
2012,09,24,13,07,14.20
2012,09,24,13,08,14.20
2012,09,24,13,09,14.20
2012,09,24,13,10,14.20
2012,09,24,13,11,14.30
2012,09,24,13,12,14.30
2012,09,24,13,13,14.40
2012,09,24,13,14,14.50
2012,09,24,13,15,14.50
2012,09,24,13,16,14.50
2012,09,24,13,17,14.50
2012,09,24,13,18,14.60
2012,09,24,13,19,14.70
2012,09,24,13,20,14.80
2012,09,24,13,21,14.90
2012,09,24,13,22,15.00
2012,09,24,13,23,15.00
2012,09,24,13,24,15.00
2012,09,24,13,25,14.90
2012,09,24,13,26,14.90
2012,09,24,13,27,14.90
2012,09,24,13,28,14.90
2012,09,24,13,29,15.00
2012,09,24,13,30,15.10
2012,09,24,13,31,15.20
2012,09,24,13,32,15.30
2012,09,24,13,33,15.50
2012,09,24,13,34,15.70
2012,09,24,13,35,15.90
2012,09,24,13,36,16.00
2012,09,24,13,37,16.10
2012,09,24,13,38,16.00
2012,09,24,13,39,16.00
2012,09,24,13,40,15.90
2012,09,24,13,41,15.90
2012,09,24,13,42,15.90
2012,09,24,13,43,16.00
2012,09,24,13,44,16.10
2012,09,24,13,45,16.30
2012,09,24,13,46,16.60
2012,09,24,13,47,16.80
2012,09,24,13,48,17.00
2012,09,24,13,49,17.20
2012,09,24,13,50,17.40
2012,09,24,13,51,17.60
2012,09,24,13,52,17.70
2012,09,24,13,53,17.90
2012,09,24,13,54,18.00
2012,09,24,13,55,18.00
2012,09,24,13,56,18.10
2012,09,24,13,57,18.20
2012,09,24,13,58,18.30
2012,09,24,13,59,18.40
2012,09,24,14,00,18.30
2012,09,24,14,01,18.30
2012,09,24,14,02,18.30
2012,09,24,14,03,18.40
2012,09,24,14,04,18.40
2012,09,24,14,05,18.40
2012,09,24,14,06,18.40
2012,09,24,14,07,18.30
2012,09,24,14,08,18.40
2012,09,24,14,09,18.50
2012,09,24,14,10,18.60
2012,09,24,14,11,18.70
2012,09,24,14,12,19.00
2012,09,24,14,13,19.10
2012,09,24,14,14,19.30
2012,09,24,14,15,19.50
2012,09,24,14,16,19.60
2012,09,24,14,17,19.50
2012,09,24,14,18,19.40
2012,09,24,14,19,19.20
2012,09,24,14,20,18.90
2012,09,24,14,21,18.70
2012,09,24,14,22,18.50
2012,09,24,14,23,18.40
2012,09,24,14,24,18.40
2012,09,24,14,25,18.40
2012,09,24,14,26,18.40
2012,09,24,14,27,18.40
2012,09,24,14,28,18.50
2012,09,24,14,29,18.50
2012,09,24,14,30,18.60
2012,09,24,14,31,18.50
2012,09,24,14,32,18.40
2012,09,24,14,33,18.20
2012,09,24,14,34,18.00
2012,09,24,14,35,17.80
2012,09,24,14,36,17.60
2012,09,24,14,37,17.40
2012,09,24,14,38,17.30
2012,09,24,14,39,17.20
2012,09,24,14,40,17.10
2012,09,24,14,41,17.10
2012,09,24,14,42,17.10
2012,09,24,14,43,17.10
2012,09,24,14,44,17.10
2012,09,24,14,45,17.20
2012,09,24,14,46,17.30
2012,09,24,14,47,17.30
2012,09,24,14,48,17.20
2012,09,24,14,49,17.20
2012,09,24,14,50,17.00
2012,09,24,14,51,16.70
2012,09,24,14,52,16.50
2012,09,24,14,53,16.30
2012,09,24,14,54,16.10
2012,09,24,14,55,16.00
2012,09,24,14,56,16.00
2012,09,24,14,57,16.00
2012,09,24,14,58,16.10
2012,09,24,14,59,16.10
2012,09,24,15,00,16.10
2012,09,24,15,01,16.00
2012,09,24,15,02,15.80
2012,09,24,15,03,15.70
2012,09,24,15,04,15.60
2012,09,24,15,05,15.50
2012,09,24,15,06,15.50
2012,09,24,15,07,15.50
2012,09,24,15,08,15.50
2012,09,24,15,09,15.70
2012,09,24,15,10,15.70
2012,09,24,15,11,15.70
2012,09,24,15,12,15.80
2012,09,24,15,13,15.80
2012,09,24,15,14,15.80
2012,09,24,15,15,15.90
2012,09,24,15,16,15.90
2012,09,24,15,17,16.00
2012,09,24,15,18,16.10
2012,09,24,15,19,16.10
2012,09,24,15,20,16.20
2012,09,24,15,21,16.20
2012,09,24,15,22,16.30
2012,09,24,15,23,16.40
2012,09,24,15,24,16.40
2012,09,24,15,25,16.50
2012,09,24,15,26,16.60
2012,09,24,15,27,16.60
2012,09,24,15,28,16.70
2012,09,24,15,29,16.80
2012,09,24,15,30,16.80
2012,09,24,15,31,16.80
2012,09,24,15,32,16.90
2012,09,24,15,33,16.90
2012,09,24,15,34,16.90
2012,09,24,15,35,16.90
2012,09,24,15,36,17.00
2012,09,24,15,37,17.10
2012,09,24,15,38,17.30
2012,09,24,15,39,17.40
2012,09,24,15,40,17.60
2012,09,24,15,41,17.70
2012,09,24,15,42,17.80
2012,09,24,15,43,17.80
2012,09,24,15,44,17.90
2012,09,24,15,45,17.90
2012,09,24,15,46,18.00
2012,09,24,15,47,18.00
2012,09,24,15,48,18.10
2012,09,24,15,49,18.10
2012,09,24,15,50,18.20
2012,09,24,15,51,18.20
2012,09,24,15,52,18.20
2012,09,24,15,53,18.20
2012,09,24,15,54,18.20
2012,09,24,15,55,18.10
2012,09,24,15,56,18.10
2012,09,24,15,57,18.10
2012,09,24,15,58,18.10
2012,09,24,15,59,18.10
2012,09,24,16,00,18.10
2012,09,24,16,01,18.10
2012,09,24,16,02,18.10
2012,09,24,16,03,18.10
2012,09,24,16,04,18.20
2012,09,24,16,05,18.30
2012,09,24,16,06,18.40
2012,09,24,16,07,18.50
2012,09,24,16,08,18.60
2012,09,24,16,09,18.70
2012,09,24,16,10,18.80
2012,09,24,16,11,18.90
2012,09,24,16,12,19.00
2012,09,24,16,13,19.00
2012,09,24,16,14,19.10
2012,09,24,16,15,19.10
2012,09,24,16,16,19.20
2012,09,24,16,17,19.30
2012,09,24,16,18,19.40
2012,09,24,16,19,19.40
2012,09,24,16,20,19.40
2012,09,24,16,21,19.40
2012,09,24,16,22,19.30
2012,09,24,16,23,19.20
2012,09,24,16,24,19.20
2012,09,24,16,25,19.10
2012,09,24,16,26,19.10
2012,09,24,16,27,19.00
2012,09,24,16,28,18.90
2012,09,24,16,29,18.80
2012,09,24,16,30,18.70
2012,09,24,16,31,18.70
2012,09,24,16,32,18.70
2012,09,24,16,33,18.60
2012,09,24,16,34,18.60
2012,09,24,16,35,18.60
2012,09,24,16,36,18.60
2012,09,24,16,37,18.60
2012,09,24,16,38,18.60
2012,09,24,16,39,18.60
2012,09,24,16,40,18.50
2012,09,24,16,41,18.40
2012,09,24,16,42,18.30
2012,09,24,16,43,18.30
2012,09,24,16,44,18.20
2012,09,24,16,45,18.20
2012,09,24,16,46,18.10
2012,09,24,16,47,18.00
2012,09,24,16,48,18.00
2012,09,24,16,49,17.90
2012,09,24,16,50,17.90
2012,09,24,16,51,17.80
2012,09,24,16,52,17.70
2012,09,24,16,53,17.60
2012,09,24,16,54,17.60
2012,09,24,16,55,17.60
2012,09,24,16,56,17.50
2012,09,24,16,57,17.50
2012,09,24,16,58,17.40
2012,09,24,16,59,17.40
2012,09,24,17,00,17.40
2012,09,24,17,01,17.40
2012,09,24,17,02,17.40
2012,09,24,17,03,17.40
2012,09,24,17,04,17.40
2012,09,24,17,05,17.40
2012,09,24,17,06,17.40
2012,09,24,17,07,17.40
2012,09,24,17,08,17.30
2012,09,24,17,09,17.30
2012,09,24,17,10,17.30
2012,09,24,17,11,17.30
2012,09,24,17,12,17.20
2012,09,24,17,13,17.20
2012,09,24,17,14,17.20
2012,09,24,17,15,17.20
2012,09,24,17,16,17.10
2012,09,24,17,17,17.10
2012,09,24,17,18,17.00
2012,09,24,17,19,17.00
2012,09,24,17,20,16.90
2012,09,24,17,21,16.90
2012,09,24,17,22,16.90
2012,09,24,17,23,17.00
2012,09,24,17,24,17.00
2012,09,24,17,25,17.00
2012,09,24,17,26,17.00
2012,09,24,17,27,17.10
2012,09,24,17,28,17.00
2012,09,24,17,29,17.00
2012,09,24,17,30,16.90
2012,09,24,17,31,16.90
2012,09,24,17,32,16.90
2012,09,24,17,33,16.90
2012,09,24,17,34,16.80
2012,09,24,17,35,16.80
2012,09,24,17,36,16.80
2012,09,24,17,37,16.80
2012,09,24,17,38,16.80
2012,09,24,17,39,16.80
2012,09,24,17,40,16.80
2012,09,24,17,41,16.70
2012,09,24,17,42,16.70